User: anonymous   Login
Location: Caltech
(34.1382°N, 118.1253°W)
Time: 10:03:06
(UTC-07:00)
Language:

Cosmos 1943 Rocket - Orbit

View from above orbital plane
View from above orbital plane
View from above satellite
View from above satellite

Ground track
Ground track

The orbit data is extracted from the following two-line orbital elements,

1 19120U 88039B   16242.35363278 -.00000113  00000-0 -30617-4 0  9991
2 19120  71.0120 221.5418 0024217 275.0304  84.8056 14.19152563464985
Epoch (UTC): 29 August 2016 08:29:13
Eccentricity: 0.0024217
inclination: 71.0120°
perigee height: 811 km
apogee height: 845 km
right ascension of ascending node: 221.5418°
argument of perigee: 275.0304°
revolutions per day: 14.19152563
mean anomaly at epoch: 84.8056°
orbit number at epoch: 46498

The dashed part of the orbit path shows where the satellite is in the earth's shadow,  

DLR